Moline, IL

5:26 AM CDT on August 20, 2019 (GMT -0500)
Quad-City International

Weather History for KMLI - July, 2019

Change the Weather History Date:

Monday, July 22, 2019

  Actual Average Record
Temperature  
Mean Temperature 73 °F 75 °F  
Max Temperature 84 °F 86 °F 104 °F (1934)
Min Temperature 61 °F 65 °F 46 °F (1947)
Degree Days  
Heating Degree Days 0 0  
Month to date heating degree days 0 0  
Since 1 June heating degree days 2 19  
Since 1 July heating degree days 0 0  
Cooling Degree Days 8 10  
Month to date cooling degree days 355 236  
Year to date cooling degree days 654 526  
Since 1 June cooling degree days 588 450  
Growing Degree Days 26 (Base 50)    
Moisture  
Dew Point 58 °F    
Average Humidity 57    
Maximum Humidity 73    
Minimum Humidity 40    
Precipitation  
Precipitation 0.00 in 0.13 in 3.11 in (2017)
Month to date precipitation 1.15 3.19  
Year to date precipitation 30.76 21.54  
Snow  
Snow 0.00 in 0.00 in - ()
Month to date snowfall 0.0 0.0  
Since 1 June snowfall 0.0 0.0  
Since 1 July snowfall 0.0 0.0  
Snow Depth 0.00 in    
Sea Level Pressure  
Sea Level Pressure 30.06 in    
Wind  
Wind Speed 7 mph (NNE)    
Max Wind Speed 16 mph    
Max Gust Speed 26 mph    
Visibility 10 miles    
Events      
T = Trace of Precipitation, MM = Missing Value Source: NWS Daily Summary

Daily Weather History Graph

Daily Weather History Graph

Search for Another Location

Airport or City:

Astronomy

Jul. 22, 2019 Rise Set
Actual Time 5:47 AM CDT 8:29 PM CDT
Civil Twilight 5:15 AM CDT 9:01 PM CDT
Nautical Twilight 4:34 AM CDT 9:41 PM CDT
Astronomical Twilight 3:48 AM CDT 10:27 PM CDT
Moon 11:46 PM CDT (7/22) 11:07 AM CDT (7/22)
Length of Visible Light 15h 46m
Length of Day
14h 41m
Waning Gibbous, 72% of the Moon is Illuminated
Jul 22
Waning Gibbous
Jul 24
Last Quarter
Jul 31
New
Aug 7
First Quarter
Aug 15
Full

Hourly Weather History & Observations

Time (CDT) Temp. Heat Index Dew Point Humidity Pressure Visibility Wind Dir Wind Speed Gust Speed Precip Events Conditions
12:52 AM 75.0 °F - 59.0 °F 57% 30.00 in 10.0 mi North 5.8 mph - N/A   Clear
1:52 AM 73.9 °F - 57.9 °F 57% 29.99 in 10.0 mi Calm Calm - N/A   Clear
2:52 AM 73.0 °F - 59.0 °F 61% 29.99 in 10.0 mi North 4.6 mph - N/A   Clear
3:52 AM 71.1 °F - 59.0 °F 66% 29.99 in 10.0 mi Variable 3.5 mph - N/A   Clear
4:52 AM 72.0 °F - 60.1 °F 66% 30.01 in 10.0 mi Variable 3.5 mph - N/A   Mostly Cloudy
5:52 AM 69.1 °F - 61.0 °F 75% 30.02 in 10.0 mi West 3.5 mph - N/A   Partly Cloudy
6:52 AM 72.0 °F - 60.1 °F 66% 30.03 in 10.0 mi Calm Calm - N/A   Clear
7:52 AM 73.0 °F - 62.1 °F 68% 30.05 in 10.0 mi Variable 4.6 mph - N/A   Clear
8:52 AM 75.0 °F - 60.1 °F 60% 30.06 in 10.0 mi NE 11.5 mph - N/A   Clear
9:52 AM 77.0 °F - 61.0 °F 58% 30.07 in 10.0 mi ENE 6.9 mph - N/A   Clear
10:52 AM 78.1 °F - 60.1 °F 54% 30.08 in 10.0 mi NNE 10.4 mph - N/A   Clear
11:52 AM 79.0 °F - 60.1 °F 52% 30.08 in 10.0 mi NNE 11.5 mph - N/A   Clear
12:52 PM 81.0 °F 81.6 °F 60.1 °F 49% 30.08 in 10.0 mi North 11.5 mph 24.2 mph N/A   Mostly Cloudy
1:52 PM 80.1 °F 80.6 °F 57.9 °F 47% 30.08 in 10.0 mi NNE 8.1 mph 18.4 mph N/A   Mostly Cloudy
2:52 PM 82.0 °F 81.6 °F 55.9 °F 41% 30.08 in 10.0 mi NE 17.3 mph 25.3 mph N/A   Scattered Clouds
3:52 PM 82.9 °F 82.0 °F 55.0 °F 38% 30.08 in 10.0 mi North 9.2 mph - N/A   Partly Cloudy
4:52 PM 82.9 °F 82.0 °F 55.0 °F 38% 30.07 in 10.0 mi NNE 15.0 mph 21.9 mph N/A   Partly Cloudy
5:52 PM 79.0 °F - 55.0 °F 44% 30.08 in 10.0 mi North 10.4 mph - N/A   Partly Cloudy
6:52 PM 77.0 °F - 54.0 °F 45% 30.09 in 10.0 mi North 8.1 mph 19.6 mph N/A   Clear
7:52 PM 75.9 °F - 53.1 °F 45% 30.10 in 10.0 mi North 12.7 mph 20.7 mph N/A   Clear
9:52 PM 72.0 °F - 54.0 °F 53% 30.13 in 10.0 mi North 6.9 mph - N/A   Clear
10:52 PM 70.0 °F - 53.1 °F 55% 30.13 in 10.0 mi North 4.6 mph - N/A   Clear
11:52 PM 68.0 °F - 53.1 °F 59% 30.14 in 10.0 mi Calm Calm - N/A   Clear